weather.gov     
National Weather Service

Terminal Aerodrome Forecast
NWS Homepage
This page is being discontinued on March 12, 2014.
The same data is available at this site. Please update your bookmarks.
Thank you, and we apologize for the inconvenience.
Please send an email to SR-SRH.Webmaster@noaa.gov with any concerns.


Current Version
Previous Version:    01  02  03  04  05  06  07  08  09  10  11  12  13  14  15  16  17  18  19  20  21  22  23  24  25  26  27  28  29  30  
   31  32  33  34  35  36  37  
[Printable]
442
FTUS46 KOTX 190824 AAA
TAFCOE
TAF AMD
KCOE 190824Z 1908/2006 07006KT P6SM -RA SCT030 BKN045 OVC070
     FM191600 10006KT 4SM -RA BR BKN014 OVC020
     FM200000 21005KT P6SM OVC012
     FM200300 19005KT P6SM OVC010
      AMD LTD TO CLD AND VIS=


442
FTUS46 KOTX 190824 AAA
TAFCOE
TAF AMD
KCOE 190824Z 1908/2006 07006KT P6SM -RA SCT030 BKN045 OVC070
     FM191600 10006KT 4SM -RA BR BKN014 OVC020
     FM200000 21005KT P6SM OVC012
     FM200300 19005KT P6SM OVC010
      AMD LTD TO CLD AND VIS=




U.S. Dept. of Commerce
NOAA National Weather Service
1325 East West Highway
Silver Spring, MD 20910
E-mail: w-nws.webmaster@noaa.gov
Page last modified: May 16, 2007
NATIONAL WEATHER SERVICE: for Safety, for Work, for Fun - FOR LIFE